Current Weather Conditions: station ENSL

sailwx.info

See reports from other nearby stations

no recent reports received from weather station ID ENSL

Tides Pressure Air temp Water temp Dewpoint Dewpoint depression Visibility Wind speed Wind direction Waves Ship positions
date/time (UTC)wind fromknots sea level pressurealtimeterstation pressurevisibilityair tempwater tempwave heightnotes
2018-Apr-27 07:50 310 15 5.4 8.0
2018-Apr-27 07:20 320 19 5.4 8.0
2018-Apr-27 06:50 310 20 5.4 7.0
2018-Apr-27 06:20 300 15 5.4 7.0
2018-Apr-27 05:50 310 18 5.4 7.0 Showers in the vicinity.
2018-Apr-27 05:20 290 17 5.4 7.0 Showers in the vicinity.
2018-Apr-27 04:50 300 18 5.4 7.0
2018-Apr-27 04:20 300 17 5.4 7.0
2018-Apr-27 03:50 300 18 5.4 7.0
2018-Apr-27 03:20 290 24 5.4 7.0 Light rain showers.
2018-Apr-27 02:50 280 20 5.4 7.0 Light rain showers.
2018-Apr-27 02:20 280 20 5.4 7.0
2018-Apr-27 01:50 280 15 5.4 7.0
2018-Apr-27 01:20 290 18 5.4 7.0
2018-Apr-27 00:50 290 17 5.4 7.0
2018-Apr-27 00:20 290 18 5.4 7.0
2018-Apr-26 23:50 290 20 5.4 7.0
2018-Apr-26 23:20 290 20 5.4 7.0
2018-Apr-26 22:50 290 21 5.4 7.0
2018-Apr-26 22:20 280 21 5.4 7.0
2018-Apr-26 21:50 290 22 5.4 7.0
2018-Apr-26 21:20 280 21 5.4 7.0
2018-Apr-26 20:50 280 21 5.4 7.0
2018-Apr-26 20:20 270 21 5.4 7.0
2018-Apr-26 19:50 260 20 5.4 7.0
2018-Apr-26 19:20 270 20 5.4 7.0
2018-Apr-26 18:50 270 19 5.4 7.0
2018-Apr-26 18:20 270 19 5.4 7.0
2018-Apr-26 17:50 250 20 5.4 7.0
2018-Apr-26 17:20 240 21 5.4 7.0
2018-Apr-26 16:50 220 17 5.4 7.0
2018-Apr-26 16:20 230 13 5.4 6.0
2018-Apr-26 15:50 230 13 5.4 6.0 Light rain showers.
2018-Apr-26 15:20 250 19 5.4 7.0 Light rain showers.
2018-Apr-26 14:50 230 15 5.4 7.0 Light rain.
2018-Apr-26 14:20 240 14 5.4 7.0
2018-Apr-26 13:50 250 14 5.4 7.0
2018-Apr-26 13:20 250 13 5.4 7.0
2018-Apr-26 12:50 250 13 5.4 7.0
2018-Apr-26 12:20 240 13 5.4 7.0
2018-Apr-26 11:50 240 13 5.4 7.0
2018-Apr-26 11:20 230 11 5.4 7.0
2018-Apr-26 10:50 240 11 5.4 7.0
2018-Apr-26 10:20 240 12 5.4 7.0
2018-Apr-26 09:50 240 13 5.4 7.0
2018-Apr-26 09:20 240 13 5.4 7.0
2018-Apr-26 08:50 230 13 5.4 7.0
2018-Apr-26 08:20 240 13 5.4 7.0
2018-Apr-26 07:50 230 12 5.4 7.0
2018-Apr-26 07:22 230 14 5.4 7.0
2018-Apr-26 06:50 230 14 5.4 7.0
2018-Apr-26 06:20 230 13 5.4 7.0
2018-Apr-26 05:50 240 12 5.4 7.0
2018-Apr-26 05:20 250 12 5.4 7.0
2018-Apr-26 04:50 250 12 5.4 7.0
2018-Apr-26 04:20 270 9 5.4 7.0
2018-Apr-26 03:50 280 11 5.4 7.0
2018-Apr-26 03:20 260 13 5.4 7.0
2018-Apr-26 02:50 260 13 5.4 7.0
2018-Apr-26 02:20 290 12 5.4 7.0
2018-Apr-26 01:50 290 13 5.4 7.0
2018-Apr-26 01:20 280 14 5.4 7.0
2018-Apr-26 00:50 280 14 5.4 7.0
2018-Apr-26 00:20 270 13 5.4 7.0
2018-Apr-25 23:50 280 13 5.4 7.0
2018-Apr-25 23:20 270 13 5.4 7.0
2018-Apr-25 22:50 260 11 5.4 7.0
2018-Apr-25 22:20 250 9 5.4 7.0
2018-Apr-25 21:50 230 13 5.4 7.0
2018-Apr-25 21:20 220 15 5.4 7.0
2018-Apr-25 20:50 210 14 5.4 7.0
2018-Apr-25 20:20 200 14 5.4 7.0
2018-Apr-25 19:50 200 15 5.4 7.0
2018-Apr-25 19:20 210 17 5.4 7.0
2018-Apr-25 18:50 200 17 5.4 7.0
2018-Apr-25 18:20 210 17 5.4 7.0
2018-Apr-25 17:50 210 15 5.4 7.0
2018-Apr-25 17:20 210 14 5.4 7.0
2018-Apr-25 16:50 200 14 5.4 7.0
2018-Apr-25 16:20 210 14 5.4 8.0
2018-Apr-25 15:50 210 13 5.4 8.0
2018-Apr-25 15:20 220 13 5.4 7.0
2018-Apr-25 14:50 220 12 5.4 7.0
2018-Apr-25 14:20 220 13 5.4 7.0
2018-Apr-25 13:50 230 12 5.4 7.0
2018-Apr-25 13:20 240 13 5.4 7.0
2018-Apr-25 12:50 240 13 5.4 7.0
2018-Apr-25 12:20 240 12 5.4 7.0
2018-Apr-25 11:20 250 12 5.4 7.0
2018-Apr-25 10:50 260 11 5.4 7.0
2018-Apr-25 10:20 250 9 5.4 7.0
2018-Apr-25 09:50 250 9 5.4 7.0
2018-Apr-25 09:20 270 7 5.4 7.0
2018-Apr-25 08:50 270 9 5.4 7.0
2018-Apr-25 08:20 270 12 5.4 7.0